Date String (YYYY-MM-DD hh:mm:ss) UTC,Instrument flags,absolute air pressure of the measurement (hPa),sample flow rate (lpm),inlet stack bypass flow (lpm),air temperature of the measurement (°C),ambient temperature measured by the external sensor (°C),aerosol sample conditioner tube jacket temperature (°C),OPC LED temperature (°C),internal box temperature (°C),relative humidity of the measurement (%),span deviation,mass concentration of particles derived from Lorenz-Mie calculation of OPC scattering (μg/m³),mass concentration of particles derived from Lorenz-Mie calculation of OPC scattering (μg/m³),mass concentration of particles derived from Lorenz-Mie calculation of OPC scattering (μg/m³)
DateTimeUTC,F1_M11,P_M11,Q1_M11,Q2_M11,T1_M11,T2_M11,T3_M11,T4_M11,T5_M11,U1_M11,ZSPAN_M11,X0_M11,X2_M11,X1_M11
2024-02-01 09:00:00,SystemResetWarning,0826.3,4.99,000.00,025.2,024.5,000.0,033.7,027.0,09.3,0006.1,0023.74,0006.66,0005.67
2024-02-01 09:01:00,SystemResetWarning,0826.2,5.00,000.00,025.2,024.5,000.0,033.7,027.0,09.3,0005.5,0022.82,0006.68,0005.71
2024-02-01 09:02:00,SystemResetWarning,0826.3,5.00,000.00,025.2,024.5,000.0,033.6,027.0,09.4,0005.5,0023.52,0006.68,0005.74
2024-02-01 09:03:00,SystemResetWarning,0826.3,5.00,000.00,025.2,024.5,000.0,033.6,027.0,09.4,0006.3,0023.46,0006.72,0005.76
2024-02-01 09:04:00,SystemResetWarning,0826.2,5.01,000.00,025.2,024.5,000.0,033.6,026.9,09.4,0005.9,0023.94,0006.75,0005.74
2024-02-01 09:05:00,SystemResetWarning,0826.3,5.00,000.00,025.2,024.5,000.0,033.6,026.9,09.5,0005.4,0023.68,0006.74,0005.74
2024-02-01 09:06:00,SystemResetWarning,0826.2,5.00,000.00,025.2,024.4,000.0,033.6,026.9,09.4,0005.1,0023.95,0006.77,0005.75
2024-02-01 09:07:00,SystemResetWarning,0826.2,5.00,000.00,025.2,024.4,000.0,033.6,026.9,09.5,0004.7,0023.51,0006.80,0005.78
2024-02-01 09:08:00,SystemResetWarning,0826.2,5.00,000.00,025.2,024.4,000.0,033.6,027.0,09.5,0004.9,0022.92,0006.86,0005.81
2024-02-01 09:09:00,SystemResetWarning,0826.2,4.99,000.00,025.2,024.4,000.0,033.6,026.9,09.5,0005.0,0022.87,0006.88,0005.86
2024-02-01 09:10:00,SystemResetWarning,0826.2,4.99,000.00,025.2,024.4,000.0,033.6,026.9,09.5,0004.3,0022.36,0006.92,0005.91
2024-02-01 09:11:00,SystemResetWarning,0826.2,5.00,000.00,025.2,024.4,000.0,033.6,026.9,09.5,0004.7,0021.72,0006.98,0005.94
2024-02-01 09:12:00,SystemResetWarning,0826.2,5.00,000.00,025.2,024.4,000.0,033.6,026.9,09.5,0000.0,0021.25,0007.02,0005.97
2024-02-01 09:13:00,SystemResetWarning,0826.2,5.00,000.00,025.2,024.4,000.0,033.6,026.9,09.5,0000.0,0019.53,0007.05,0006.01
2024-02-01 09:14:00,SystemResetWarning,0826.2,4.99,000.00,025.2,024.4,000.0,033.6,026.9,09.5,0000.0,0019.16,0007.07,0006.04
2024-02-01 09:15:00,SystemResetWarning,0826.2,5.00,000.00,025.2,024.4,000.0,033.6,026.9,09.5,0000.0,0019.21,0007.11,0006.11
2024-02-01 09:16:00,SystemResetWarning,0826.2,5.00,000.00,025.2,024.4,000.0,033.6,026.9,09.5,0000.0,0018.51,0007.15,0006.15
2024-02-01 09:17:00,SystemResetWarning,0826.2,5.01,000.00,025.1,024.4,000.0,033.6,026.9,09.6,0000.0,0018.68,0007.14,0006.17
2024-02-01 09:18:00,SystemResetWarning,0826.2,4.99,000.00,025.1,024.4,000.0,033.6,026.9,09.6,0000.0,0018.55,0007.11,0006.17
2024-02-01 09:19:00,SystemResetWarning,0826.2,4.99,000.00,025.1,024.4,000.0,033.6,026.9,09.6,0000.0,0019.07,0007.13,0006.18
2024-02-01 09:20:00,SystemResetWarning,0826.2,5.00,000.00,025.1,024.4,000.0,033.5,026.8,09.5,0000.0,0018.08,0007.13,0006.19
2024-02-01 09:21:00,SystemResetWarning,0826.2,5.00,000.00,025.1,024.4,000.0,033.5,026.8,09.6,0000.0,0018.58,0007.14,0006.21
2024-02-01 09:22:00,SystemResetWarning,0826.2,5.00,000.00,025.1,024.4,000.0,033.5,026.8,09.6,0000.0,0019.62,0007.15,0006.23
2024-02-01 09:23:00,SystemResetWarning,0826.2,5.00,000.00,025.1,024.4,000.0,033.5,026.8,09.6,0000.0,0021.25,0007.17,0006.24
2024-02-01 09:24:00,SystemResetWarning,0826.1,5.00,000.00,025.1,024.3,000.0,033.5,026.9,09.6,0002.3,0021.52,0007.23,0006.25
2024-02-01 09:25:00,SystemResetWarning,0826.1,5.00,000.00,025.1,024.3,000.0,033.5,026.8,09.6,0003.6,0021.58,0007.28,0006.27
2024-02-01 09:26:00,SystemResetWarning,0826.1,5.01,000.00,025.1,024.3,000.0,033.5,026.8,09.6,0002.5,0020.58,0007.32,0006.27
2024-02-01 09:27:00,SystemResetWarning,0826.1,5.00,000.00,025.1,024.3,000.0,033.5,026.8,09.7,0002.2,0020.14,0007.32,0006.28
2024-02-01 09:28:00,SystemResetWarning,0826.1,4.98,000.00,025.1,024.3,000.0,033.5,026.8,09.6,0001.4,0020.01,0007.34,0006.29
2024-02-01 09:29:00,SystemResetWarning,0826.1,5.00,000.00,025.1,024.3,000.0,033.5,026.8,09.6,0001.0,0019.41,0007.38,0006.31
2024-02-01 09:30:00,SystemResetWarning,0826.0,5.02,000.00,025.1,024.3,000.0,033.5,026.8,09.6,0000.0,0019.97,0007.38,0006.32
2024-02-01 09:31:00,SystemResetWarning,0826.0,5.00,000.00,025.1,024.3,000.0,033.5,026.8,09.7,0000.0,0019.71,0007.39,0006.33
2024-02-01 09:32:00,SystemResetWarning,0826.0,4.98,000.00,025.1,024.3,000.0,033.5,026.8,09.7,0000.0,0020.10,0007.40,0006.34
2024-02-01 09:33:00,SystemResetWarning,0826.0,5.01,000.00,025.0,024.3,000.0,033.5,026.8,09.7,0000.0,0019.20,0007.39,0006.32
2024-02-01 09:34:00,SystemResetWarning,0826.0,5.01,000.00,025.0,024.2,000.0,033.5,026.8,09.7,0000.0,0017.89,0007.40,0006.32
2024-02-01 09:35:00,SystemResetWarning,0826.0,5.00,000.00,025.0,024.2,000.0,033.4,026.7,09.7,0000.0,0017.78,0007.36,0006.32
2024-02-01 09:36:00,SystemResetWarning,0825.9,4.99,000.00,025.0,024.2,000.0,033.4,026.7,09.6,0000.0,0017.77,0007.35,0006.33
2024-02-01 09:37:00,SystemResetWarning,0825.9,5.00,000.00,025.0,024.2,000.0,033.4,026.7,09.6,0000.0,0018.17,0007.32,0006.34
2024-02-01 09:38:00,SystemResetWarning,0825.9,5.02,000.00,025.0,024.2,000.0,033.4,026.7,09.6,0000.0,0019.35,0007.31,0006.35
2024-02-01 09:39:00,SystemResetWarning,0825.8,5.00,000.00,025.0,024.2,000.0,033.4,026.7,09.7,0000.0,0019.31,0007.33,0006.36
2024-02-01 09:40:00,SystemResetWarning,0825.9,4.98,000.00,025.0,024.2,000.0,033.4,026.7,09.6,0000.0,0019.87,0007.34,0006.39
2024-02-01 09:41:00,SystemResetWarning,0825.9,5.01,000.00,025.0,024.2,000.0,033.4,026.7,09.6,0000.0,0018.38,0007.35,0006.41
2024-02-01 09:42:00,SystemResetWarning,0825.9,5.01,000.00,025.0,024.2,000.0,033.4,026.7,09.6,0000.0,0018.16,0007.37,0006.41
2024-02-01 09:43:00,SystemResetWarning,0825.9,4.99,000.00,025.0,024.2,000.0,033.4,026.7,09.6,0000.0,0017.22,0007.35,0006.41
2024-02-01 09:44:00,SystemResetWarning,0825.9,4.99,000.00,025.0,024.2,000.0,033.4,026.7,09.6,0003.9,0017.35,0007.39,0006.46
2024-02-01 09:45:00,SystemResetWarning,0825.9,5.00,000.00,024.9,024.1,000.0,033.4,026.7,09.7,0005.6,0018.41,0007.43,0006.51
2024-02-01 09:46:00,SystemResetWarning,0825.9,5.01,000.00,024.9,024.1,000.0,033.4,026.6,09.7,0004.6,0018.51,0007.49,0006.54
2024-02-01 09:47:00,SystemResetWarning,0825.9,5.00,000.00,024.9,024.1,000.0,033.3,026.6,09.8,0005.2,0019.33,0007.54,0006.56
2024-02-01 09:48:00,SystemResetWarning,0825.9,5.00,000.00,024.9,024.1,000.0,033.3,026.6,09.7,0005.7,0019.83,0007.60,0006.56
2024-02-01 09:49:00,SystemResetWarning,0825.9,5.00,000.00,024.9,024.1,000.0,033.3,026.7,09.7,0005.3,0018.69,0007.64,0006.55
2024-02-01 09:50:00,SystemResetWarning,0825.9,5.00,000.00,024.9,024.1,000.0,033.3,026.7,09.7,0004.7,0019.44,0007.67,0006.57
2024-02-01 09:51:00,SystemResetWarning,0825.8,5.01,000.00,024.9,024.1,000.0,033.3,026.6,09.7,0004.4,0019.25,0007.71,0006.59
2024-02-01 09:52:00,SystemResetWarning,0825.8,5.00,000.00,024.9,024.1,000.0,033.3,026.6,09.7,0004.2,0020.27,0007.73,0006.60
2024-02-01 09:53:00,SystemResetWarning,0825.8,5.00,000.00,024.9,024.1,000.0,033.3,026.6,09.7,0004.4,0021.62,0007.74,0006.63
2024-02-01 09:54:00,SystemResetWarning,0825.8,5.00,000.00,024.9,024.1,000.0,033.3,026.6,09.7,0004.8,0022.06,0007.81,0006.66
2024-02-01 09:55:00,SystemResetWarning,0825.8,4.99,000.00,024.9,024.1,000.0,033.3,026.6,09.7,0004.6,0022.66,0007.92,0006.71
2024-02-01 09:56:00,SystemResetWarning,0825.8,4.99,000.00,024.9,024.1,000.0,033.3,026.6,09.7,0004.9,0022.45,0007.95,0006.74
2024-02-01 09:57:00,SystemResetWarning,0825.8,5.00,000.00,024.9,024.1,000.0,033.3,026.6,09.6,0004.9,0023.33,0007.97,0006.75
2024-02-01 09:58:00,SystemResetWarning,0825.8,5.00,000.00,024.9,024.1,000.0,033.3,026.6,09.7,0004.6,0023.16,0007.96,0006.76
2024-02-01 09:59:00,SystemResetWarning,0825.8,5.02,000.00,024.9,024.1,000.0,033.3,026.6,09.7,0004.2,0023.37,0007.97,0006.81
